Content
SEND FEEDBACK

Daily
Averages
Monthly
Summary
United States of America

SULPHUR, LOUISIANA


Home > North America > United States > Louisiana
Elevation: 10 feet     Latitude: 30 13N     Longitude: 093 23W

WEATHER
 
SELECT A DAY
Number of Records: 193,389;   Date Range: 11/22/06 - 9/30/14
 
SHARE

PRINT THIS DATA

[ ← Previous Day ]
WEATHER ALMANAC - JUNE 19, 2013
[ Next Day → ]
[ °C ]   °F
Weather ElementAverageHighLow
Temperature79.7 °F87.3 °F (11:35 am)74.1 °F (6:15 am)
Dewpoint73.9 °F76.6 °F (10:55 pm)70.2 °F (5:35 pm)
Humidity83.2 %97 % (3:55 am)59 % (5:35 pm)
Barometer29.99 in30.03 in (12:15 pm)29.95 in (2:55 am)
Wind Speed3.1 mph12.7 mph (5:55 am)
Wind Gust18.4 mph (5:55 am)
Weather ElementAverage
Visibility9.8 mi
Wind DirectionE (91 °)

Weather ElementTotal
Precipitation0.55 in
Cooling Degree Days15.7 (Base 65)
Growing Degree Days30.7 (Base 50)
Averaged from 71 records on June 19, 2013
WEATHER CONDITIONS BREAKOUT
WIND DIRECTION BREAKOUT
WEATHER BY HOUR - JUNE 19, 2013
[ °C ]   °F
Local TimeTemperatureDewpointHumidityBarometerVisibilityWind DirectionWind SpeedGust SpeedPrecipitationEventsConditions
12:35 AM75.4 °F73.4 °F94 %29.98 in10.0 miSE (140°)3.5 mphClear
12:55 AM75.4 °F73.4 °F94 %29.97 in10.0 miCalmClear
1:15 AM75.7 °F73.4 °F92 %29.97 in10.0 miESE (120°)4.6 mphClear
1:35 AM75.7 °F73.4 °F92 %29.97 in10.0 miCalmClear
1:55 AM76.1 °F73.6 °F92 %29.96 in10.0 miCalmScattered Clouds
2:15 AM75.6 °F74.1 °F95 %29.96 in10.0 miCalmMostly Cloudy
2:35 AM75.6 °F74.3 °F96 %29.96 in10.0 miNNW (340°)3.5 mphOvercast
2:55 AM75.4 °F74.3 °F96 %29.95 in10.0 miCalmScattered Clouds
3:15 AM75.4 °F74.3 °F96 %29.95 in10.0 miCalmScattered Clouds
3:35 AM75.4 °F74.3 °F96 %29.95 in10.0 miCalmMostly Cloudy
3:55 AM76.1 °F75.2 °F97 %29.95 in10.0 miCalmOvercast
4:15 AM76.5 °F75.0 °F95 %29.95 in10.0 miCalmMostly Cloudy
4:35 AM76.5 °F74.8 °F95 %29.95 in10.0 miCalmMostly Cloudy
4:55 AM76.3 °F75.2 °F96 %29.96 in10.0 miCalmOvercast
5:15 AM76.1 °F74.8 °F96 %29.95 in10.0 miCalmMostly Cloudy
5:35 AM75.7 °F74.8 °F97 %29.96 in10.0 miNE (40°)3.5 mphScattered Clouds
5:55 AM75.6 °F74.5 °F96 %29.97 in2.0 miSouth (190°)12.7 mph18.4 mph0.32 inRainHeavy Rain
6:15 AM74.1 °F72.7 °F95 %29.97 in7.0 miSouth (190°)10.4 mph0.02 inRain-ThunderstormLight Thunderstorms and Rain
6:35 AM74.7 °F72.5 °F93 %29.99 in10.0 miNNW (330°)3.5 mph0.02 inRain-ThunderstormLight Thunderstorms and Rain
6:55 AM74.5 °F72.9 °F95 %30.00 in10.0 miCalm0.02 inThunderstormThunderstorm
7:15 AM74.3 °F72.9 °F95 %30.00 in5.0 miNNE (30°)5.8 mph0.04 inRain-ThunderstormRain
7:35 AM74.7 °F73.4 °F96 %30.00 in10.0 miCalm0.04 inScattered Clouds
7:55 AM76.1 °F74.3 °F94 %30.01 in10.0 miSSW (200°)3.5 mph0.04 inLight Drizzle
8:15 AM75.6 °F73.0 °F92 %30.02 in10.0 miSouth (190°)5.8 mphOvercast
8:35 AM75.2 °F71.8 °F89 %30.01 in10.0 miCalm0.02 inMostly Cloudy
8:55 AM76.1 °F72.3 °F88 %30.01 in10.0 miCalm0.02 inScattered Clouds
9:15 AM78.4 °F73.2 °F84 %30.01 in10.0 miCalmThunderstormClear
9:35 AM82.8 °F72.5 °F71 %30.01 in10.0 miWSW (240°)3.5 mphScattered Clouds
9:55 AM83.7 °F73.4 °F71 %30.02 in10.0 miSW (220°)6.9 mphScattered Clouds
10:15 AM83.3 °F74.5 °F75 %30.02 in10.0 miSW (220°)4.6 mphMostly Cloudy
10:35 AM84.6 °F75.6 °F74 %30.02 in10.0 miCalmMostly Cloudy
10:55 AM86.0 °F75.9 °F72 %30.01 in10.0 miWest (270°)4.6 mphMostly Cloudy
11:15 AM84.9 °F75.7 °F74 %30.01 in10.0 miWest (260°)6.9 mphThunderstormMostly Cloudy
11:35 AM87.3 °F75.7 °F68 %30.01 in10.0 miWNW (300°)3.5 mphOvercast
11:55 AM83.7 °F74.5 °F74 %30.02 in10.0 miNorth (350°)8.1 mphOvercast
12:15 PM82.0 °F72.7 °F73 %30.03 in10.0 miNW (310°)5.8 mphThunderstormMostly Cloudy
12:35 PM84.6 °F74.3 °F71 %30.02 in10.0 miNorth (360°)4.6 mphThunderstormThunderstorm
12:55 PM83.7 °F74.3 °F73 %30.01 in10.0 miNNE (20°)5.8 mphScattered Clouds
1:15 PM85.5 °F73.8 °F68 %30.01 in10.0 miNNE (30°)8.1 mphClear
1:35 PM82.4 °F73.8 °F75 %30.01 in10.0 miNNE (30°)6.9 mphClear
1:55 PM81.7 °F71.6 °F71 %30.01 in10.0 miNNE (20°)6.9 mphClear
2:15 PM83.7 °F73.2 °F71 %30.01 in10.0 miNNE (30°)6.9 mphThunderstormClear
2:35 PM83.3 °F74.5 °F75 %30.01 in10.0 miNE (40°)4.6 mphClear
2:55 PM82.4 °F73.2 °F74 %30.01 in10.0 miENE (60°)4.6 mphThunderstormThunderstorm
3:15 PM81.3 °F72.1 °F74 %30.02 in10.0 miNorth (350°)5.8 mphThunderstormClear
3:35 PM80.6 °F72.1 °F75 %30.03 in10.0 miSW (230°)12.7 mphRainLight Rain
3:55 PM80.2 °F72.1 °F76 %30.01 in10.0 miCalm0.01 inRain-ThunderstormLight Thunderstorms and Rain
4:15 PM83.1 °F72.1 °F69 %30.01 in10.0 miCalmThunderstormClear
4:35 PM84.7 °F70.9 °F63 %30.00 in10.0 miNE (40°)3.5 mphScattered Clouds
4:55 PM86.0 °F72.3 °F64 %29.99 in10.0 miEast (80°)3.5 mphScattered Clouds
5:15 PM85.8 °F71.4 °F62 %29.99 in10.0 miSE (140°)3.5 mphClear
5:35 PM85.8 °F70.2 °F59 %29.99 in10.0 miEast (100°)3.5 mphClear
5:55 PM84.2 °F70.3 °F63 %29.99 in10.0 miCalmClear
6:15 PM84.4 °F72.1 °F67 %29.98 in10.0 miCalmClear
6:35 PM82.8 °F73.8 °F74 %29.98 in10.0 miCalmClear
6:55 PM83.5 °F73.2 °F71 %29.98 in10.0 miENE (70°)3.5 mphClear
7:15 PM83.3 °F73.4 °F72 %29.98 in10.0 miEast (100°)3.5 mphClear
7:35 PM82.6 °F73.6 °F74 %29.99 in10.0 miESE (120°)4.6 mphClear
7:55 PM82.4 °F74.5 °F77 %30.00 in10.0 miCalmClear
8:15 PM80.4 °F75.2 °F84 %29.99 in10.0 miCalmClear
8:35 PM80.1 °F75.2 °F85 %29.99 in10.0 miESE (110°)3.5 mphClear
8:55 PM80.4 °F75.4 °F85 %29.99 in10.0 miSE (140°)3.5 mphClear
9:15 PM79.0 °F75.9 °F90 %30.00 in10.0 miCalmClear
9:35 PM77.9 °F75.9 °F94 %30.01 in10.0 miEast (90°)3.5 mphClear
9:55 PM77.9 °F76.1 °F94 %30.01 in10.0 miCalmClear
10:15 PM78.4 °F76.1 °F92 %30.01 in10.0 miCalmClear
10:35 PM77.2 °F75.9 °F96 %30.01 in10.0 miCalmClear
10:55 PM77.9 °F76.6 °F96 %30.02 in10.0 miEast (90°)3.5 mphClear
11:15 PM77.5 °F76.3 °F96 %30.02 in10.0 miEast (90°)3.5 mphClear
11:35 PM77.5 °F76.3 °F96 %30.02 in10.0 miEast (90°)3.5 mphClear
11:55 PM77.5 °F76.1 °F95 %30.02 in10.0 miEast (90°)3.5 mphClear
Hourly data recorded from KUXL, located miles away from Sulphur, Louisiana







STORIES FROM OUR PARTNERS